Boston Weather Center

Moon Phase Calendar



Online Cameras

 


      

Current Conditions in Winthrop
11/30/2020 1:41:15 PM

54°F
Feels Like 43
Rain
Humidity
87%
Pressure
29.83"
Wind
20.8 mph (ESE)
Dew Point
51°F
UV Index
0/10 (Low)
Visibility
6 mi

Hourly Forecast

Date & Time Mon, Nov 30
1:00 PM
Mon, Nov 30
2:00 PM
Mon, Nov 30
3:00 PM
Mon, Nov 30
4:00 PM
Mon, Nov 30
5:00 PM
Mon, Nov 30
6:00 PM
Mon, Nov 30
7:00 PM
Mon, Nov 30
8:00 PM
Mon, Nov 30
9:00 PM
Mon, Nov 30
10:00 PM
Mon, Nov 30
11:00 PM
Tue, Dec 1
12:00 AM
Tue, Dec 1
1:00 AM
Tue, Dec 1
2:00 AM
Tue, Dec 1
3:00 AM
Tue, Dec 1
4:00 AM
Tue, Dec 1
5:00 AM
Tue, Dec 1
6:00 AM
Tue, Dec 1
7:00 AM
Tue, Dec 1
8:00 AM
Tue, Dec 1
9:00 AM
Tue, Dec 1
10:00 AM
Tue, Dec 1
11:00 AM
Tue, Dec 1
12:00 PM
Tue, Dec 1
1:00 PM
Tue, Dec 1
2:00 PM
Tue, Dec 1
3:00 PM
Tue, Dec 1
4:00 PM
Tue, Dec 1
5:00 PM
Tue, Dec 1
6:00 PM
Tue, Dec 1
7:00 PM
Tue, Dec 1
8:00 PM
Tue, Dec 1
9:00 PM
Tue, Dec 1
10:00 PM
Tue, Dec 1
11:00 PM
Wed, Dec 2
12:00 AM
Wed, Dec 2
1:00 AM
Wed, Dec 2
2:00 AM
Wed, Dec 2
3:00 AM
Wed, Dec 2
4:00 AM
Wed, Dec 2
5:00 AM
Wed, Dec 2
6:00 AM
Wed, Dec 2
7:00 AM
Wed, Dec 2
8:00 AM
Wed, Dec 2
9:00 AM
Wed, Dec 2
10:00 AM
Wed, Dec 2
11:00 AM
Wed, Dec 2
12:00 PM
Condition
Rain

Rain

Rain

Rain

Rain

Rain

Rain

Rain

Rain

Rain

Rain

Rain

Clouds

Clouds

Clouds

Clouds

Clouds

Clouds

Clouds

Clouds

Clouds

Rain

Clouds

Clouds

Clouds

Clouds

Clouds

Clouds

Clouds

Clouds

Clouds

Clouds

Clouds

Clouds

Clouds

Clouds

Clouds

Clear

Clear

Clear

Clear

Clear

Clear

Clouds

Clouds

Clouds

Clouds

Clouds
Temperature 54°F55°F57°F57°F58°F58°F58°F60°F59°F61°F62°F63°F62°F62°F62°F62°F60°F58°F57°F57°F58°F59°F59°F58°F60°F57°F54°F52°F50°F48°F47°F46°F45°F45°F45°F44°F44°F43°F43°F42°F42°F41°F40°F41°F42°F43°F43°F43°F
Feels Like 45°F46°F45°F44°F43°F44°F48°F48°F52°F55°F55°F54°F55°F55°F56°F55°F55°F54°F53°F53°F54°F54°F53°F52°F50°F47°F42°F40°F38°F36°F35°F35°F34°F34°F34°F34°F34°F33°F33°F32°F32°F31°F31°F31°F31°F32°F32°F32°F
Cloudiness 90%95%98%99%100%100%100%100%100%100%100%100%100%100%100%100%77%62%57%57%78%86%90%92%82%100%67%59%50%40%39%29%21%14%18%20%18%2%1%3%5%9%7%41%44%30%43%54%
Visibility 6 mi4 mi6 mi5 mi5 mi3 mi6 mi6 mi6 mi6 mi6 mi6 mi6 mi6 mi6 mi6 mi6 mi6 mi6 mi6 mi6 mi6 mi6 mi6 mi6 mi6 mi6 mi6 mi6 mi6 mi6 mi6 mi6 mi6 mi6 mi6 mi6 mi6 mi6 mi6 mi6 mi6 mi6 mi6 mi6 mi6 mi6 mi6 mi
Precipitation 98%100%100%100%100%100%100%100%100%100%100%100%80%38%38%24%9%5%5%0%14%23%22%22%21%41%22%10%1%1%1%2%2%2%2%0%0%0%0%0%0%0%0%0%0%0%0%0%
Humidity 87%87%84%85%83%86%91%87%93%91%91%84%84%85%86%85%86%88%90%89%84%79%71%66%59%69%61%54%55%59%62%58%59%60%61%61%62%63%63%64%65%66%68%68%65%62%61%61%
Dew Point 51°F52°F52°F52°F52°F54°F56°F56°F58°F59°F59°F58°F58°F58°F58°F57°F56°F55°F55°F54°F54°F53°F50°F47°F46°F47°F41°F36°F34°F35°F35°F33°F32°F32°F32°F31°F30°F30°F29°F29°F28°F27°F27°F27°F27°F27°F28°F28°F
Pressure 29.83"29.83"29.77"29.71"29.68"29.65"29.62"29.62"29.59"29.56"29.56"29.56"29.56"29.56"29.56"29.56"29.56"29.56"29.56"29.59"29.56"29.56"29.53"29.53"29.53"29.56"29.56"29.62"29.65"29.68"29.71"29.74"29.74"29.77"29.77"29.8"29.8"29.8"29.83"29.83"29.83"29.85"29.85"29.85"29.88"29.88"29.88"29.88"
Wind Speed 18 mph18.1 mph22.1 mph24.3 mph26.6 mph27.4 mph21 mph23.7 mph17.7 mph16.3 mph17.8 mph19.8 mph17.5 mph16.8 mph16.5 mph15.2 mph12.6 mph11.2 mph10 mph10.4 mph10.4 mph10.2 mph11.3 mph10.8 mph14.9 mph15.7 mph16.9 mph16 mph15.6 mph15.8 mph15.8 mph15 mph13.9 mph12.1 mph12.2 mph12.2 mph10.8 mph11 mph10.9 mph11.1 mph11.2 mph11 mph10.3 mph10.6 mph12.3 mph12.3 mph12.5 mph12.6 mph
Wind
Direction
137°
SE
144°
SE
146°
SE
149°
SSE
154°
SSE
149°
SSE
154°
SSE
156°
SSE
161°
SSE
175°
S
177°
S
173°
S
172°
S
179°
S
182°
S
177°
S
179°
S
179°
S
175°
S
186°
S
177°
S
195°
SSW
197°
SSW
184°
S
185°
S
202°
SSW
207°
SSW
205°
SSW
201°
SSW
203°
SSW
210°
SSW
211°
SSW
220°
SW
214°
SW
213°
SSW
218°
SW
216°
SW
212°
SSW
212°
SSW
211°
SSW
223°
SW
229°
SW
228°
SW
222°
SW
223°
SW
221°
SW
223°
SW
224°
SW

Daily Forecast

Date High Low Precip. Humidity
Today
Nov 30

Rain
62 °F
44 °F
100%
80%
Tuesday
Dec 1

Rain
63 °F
45 °F
100%
71%
Wednesday
Dec 2

Clouds
44 °F
39 °F
0%
62%
Thursday
Dec 3

Clear
46 °F
36 °F
0%
64%
Friday
Dec 4

Clouds
50 °F
40 °F
3%
58%
Saturday
Dec 5

Clear
49 °F
42 °F
10%
58%
Sunday
Dec 6

Rain
42 °F
36 °F
36%
77%
Monday
Dec 7

Snow
37 °F
31 °F
46%
88%
Tuesday
Dec 8

Clear
33 °F
27 °F
19%
81%
Wednesday
Dec 9

Clouds
40 °F
31 °F
0%
79%
Thursday
Dec 10

Rain
44 °F
32 °F
41%
74%
Friday
Dec 11

Clear
50 °F
40 °F
29%
70%
Saturday
Dec 12

Clouds
43 °F
31 °F
0%
70%
Sunday
Dec 13

Clear
31 °F
26 °F
0%
77%
Monday
Dec 14

Rain
46 °F
30 °F
100%
75%
Tuesday
Dec 15

Rain
46 °F
36 °F
100%
62%


Temperature 8-14 Day Outlook



Precipitation 8-14 Day Outlook




Quick Links
Boston News
Boston Photos
Boston Videos




About Us
Contact Us
Site Map
Search Site
Advertise With Us
   
Boston.USCoast.info
THE BOSTON WEBSITE

Copyright 2020, Coastal Town
Privacy    |    Legal